Flag for Netherlands Weather past 2 weeks in Nijmegen, Netherlands

Now
39 °F

Fog.


Feels Like: 34 °F
Forecast: 36 / 44 °F
Wind: 7 mph from South

Location: Volkel

Current Time: Jan 25, 2015 at 7:49:29 PM

Latest Report: Jan 25, 2015 at 7:25 PM


Visibility: 3 mi

Pressure: 30.36 "Hg

Humidity: 93%

Dew point: 37 °F

Location of NijmegenLocation

Historic Weather in Nijmegen — Graph

°F

Nijmegen temperature yesterday

Maximum temperature yesterday: 41 °F (at 2:55 PM)
Minimum temperature yesterday: 28 °F (at 12:25 AM)
Average temperature yesterday: 34 °F

Past Weeks' High & Low Weather Summary

 TemperatureHumidityPressure
High52 °F (Jan 13, 12:25 AM)100% (Jan 13, 2:55 PM)30.39 "Hg (Jan 13, 2:55 PM)
Low27 °F (Jan 17, 8:55 AM)57% (Jan 10, 7:25 PM)29.33 "Hg (Jan 15, 2:59 PM)
Average38 °F86%29.92 "Hg
* Reported Jan 10 6:25 PM — Jan 25 6:25 PM, Nijmegen, Weather by CustomWeather, © 2014

Note: Actual official high and low records may vary slightly from our data, if they occured in-between our weather recording intervals... More about our weather records

Advertising

Nijmegen weather history for previous 24 hours

 ConditionsComfort  
Time TempWeatherWind HumidityBarometerVisibility
6:25 PM
Jan 25
37 °FFog.7 mph100%30.36 "Hg2 mi
5:55 PM37 °FFog.8 mph100%30.36 "Hg3 mi
5:25 PM39 °FFog.9 mph93%30.36 "Hg3 mi
4:55 PM39 °FFog.9 mph93%30.36 "Hg3 mi
4:25 PM39 °FFog.9 mph93%30.36 "Hg3 mi
3:55 PM39 °FFog.7 mph93%30.36 "Hg3 mi
3:25 PM39 °FFog.8 mph93%30.36 "Hg3 mi
2:55 PM39 °FFog.8 mph93%30.36 "Hg3 mi
2:25 PM37 °FLight rain. Mostly cloudy.9 mph100%30.36 "Hg3 mi
1:55 PM37 °FLight rain. Mostly cloudy.8 mph100%30.36 "Hg3 mi
1:25 PM37 °FDrizzle. Overcast.8 mph100%30.36 "Hg4 mi
12:55 PM37 °FDrizzle. Mostly cloudy.8 mph100%30.36 "Hg4 mi
12:25 PM37 °FFog.8 mph93%30.39 "Hg4 mi
12:04 PM37 °FFog.7 mph93%30.39 "Hg5 mi
11:55 AM37 °FFog.7 mph93%30.39 "Hg4 mi
11:25 AM37 °FFog.7 mph100%30.39 "Hg4 mi
10:55 AM36 °FFog.6 mph100%30.39 "Hg4 mi
10:25 AM36 °FFog.6 mph93%30.39 "Hg4 mi
9:55 AM34 °FFog.6 mph100%30.39 "Hg4 mi
9:25 AM34 °FFog.6 mph100%30.39 "Hg4 mi
8:55 AM34 °FFog.6 mph100%30.39 "Hg4 mi
8:25 AM36 °FFog.6 mph93%30.39 "Hg4 mi
7:59 AM36 °FFog.7 mph93%30.39 "Hg5 mi
7:25 AM36 °FFog.6 mph93%30.36 "Hg4 mi
6:59 AM36 °FFog.6 mph93%30.36 "Hg5 mi
6:55 AM34 °FFog.6 mph100%30.36 "Hg4 mi
6:25 AM34 °FFog.6 mph93%30.36 "Hg4 mi
6:01 AM32 °FIce fog.6 mph100%30.36 "Hg5 mi
5:25 AM32 °FIce fog.6 mph100%30.36 "Hg4 mi
4:55 AM32 °FIce fog.5 mph100%30.36 "Hg3 mi
4:25 AM28 °FIce fog.6 mph100%30.36 "Hg2 mi
3:55 AM28 °FIce fog.7 mph100%30.36 "Hg2 mi
3:25 AM30 °FIce fog.6 mph100%30.36 "Hg3 mi
2:55 AM28 °FIce fog.6 mph93%30.36 "Hg4 mi
2:25 AM30 °FIce fog.5 mph100%30.36 "Hg4 mi
2:01 AM30 °FIce fog.7 mph100%30.33 "Hg5 mi
1:55 AM30 °FIce fog.6 mph93%30.33 "Hg4 mi
1:25 AM30 °FIce fog.5 mph93%30.33 "Hg6 mi
12:55 AM28 °FChilly.6 mph93%30.33 "HgN/A
12:25 AM28 °FIce fog.6 mph100%30.33 "Hg6 mi
11:55 PM
Jan 24
28 °FChilly.6 mph100%30.33 "HgN/A
11:25 PM30 °FChilly.6 mph93%30.33 "HgN/A
10:55 PM32 °FPassing clouds.6 mph93%30.33 "HgN/A
10:25 PM36 °FPassing clouds.7 mph87%30.30 "HgN/A
9:55 PM34 °FChilly.6 mph93%30.30 "HgN/A
9:25 PM36 °FChilly.6 mph87%30.30 "HgN/A
8:55 PM36 °FChilly.5 mph87%30.30 "HgN/A
8:25 PM37 °FPartly cloudy.5 mph87%30.30 "HgN/A
7:55 PM37 °FPartly cloudy.7 mph87%30.27 "HgN/A
7:25 PM37 °FChilly.5 mph87%30.27 "HgN/A
Weather by CustomWeather, © 2014

See weather overviewHow to use our weather pages